Location: Chuathbaluk
(61.5726°N, 159.2454°W)
Time: 01:15:50
(UTC+00:00)

TIGRISAT - Pass Details

Date: 24 January 2021
Orbit: 605 x 688 km, 97.7° (Epoch: 05 March)

Event Time Altitude Azimuth Distance (km) Brightness Sun altitude
Rises 16:01:10 0° 133° (SE) 2,884 ? -22.4°
Reaches altitude 10° 16:03:26 10° 125° (SE) 1,991 ? -22.1°
Maximum altitude 16:07:25 37° 59° (ENE) 991 ? -21.6°
Drops below altitude 10° 16:11:29 10° 352° (N) 2,045 ? -21.1°
Enters shadow 16:12:44 - 347° (NNW) 2,530 ? -21.0°
